Theta_e
346 347 348 348 348 348 347 347 348 349 349 346 343 341 342 344 343 343 343 344 343 344 345 345 345 347 349 350 350 352 350 346 343 344 344 343 344 345 346 346 346 348
347 348 349 349 349 348 348 347 347 348 348 348 345 342 341 344 344 343 343 343 343 343 344 345 346 345 347 349 351 352 351 347 344 345 344 344 344 345 345 347 349 350
347 348 349 349 349 349 348 348 348 347 347 348 347 344 341 342 344 343 343 343 343 343 344 345 346 345 345 348 350 350 350 347 346 346 345 344 345 346 347 349 350 350
346 347 348 349 350 349 349 350 349 347 347 347 347 345 342 342 345 344 343 344 344 344 345 344 345 345 344 346 346 347 347 346 346 346 345 345 345 345 348 351 350 350
344 346 348 349 350 350 350 350 349 348 346 345 344 344 344 344 346 345 344 344 345 346 346 344 343 344 344 344 343 343 344 345 344 344 345 345 345 344 347 349 350 350
342 344 346 348 348 348 348 349 350 349 346 345 343 343 343 343 345 345 346 345 345 346 346 345 342 342 343 343 343 342 342 343 343 343 343 343 344 345 345 346 347 348
339 341 344 345 345 345 346 346 347 348 347 346 344 342 342 342 342 344 345 346 346 344 345 344 343 342 342 342 342 342 341 341 342 343 342 342 343 344 345 345 344 344
337 339 340 342 342 342 342 341 342 344 345 345 343 340 340 341 342 343 346 348 348 347 345 344 343 342 342 341 340 340 340 340 341 341 342 342 342 343 343 343 343 342
336 337 338 339 339 339 338 337 336 338 340 342 341 340 340 341 343 345 348 350 350 349 348 347 345 342 341 340 339 339 338 338 339 339 340 340 341 341 341 341 341 341
334 335 336 337 337 337 336 335 334 334 336 338 339 340 340 341 342 344 347 351 351 351 350 350 349 346 344 341 339 338 337 337 337 337 338 338 338 339 339 339 339 339
334 334 334 335 334 335 334 334 333 333 334 335 336 337 338 339 340 342 344 348 350 350 350 351 351 351 349 346 343 340 337 336 336 335 336 337 337 337 337 336 336 336
335 334 334 333 333 333 333 333 333 333 334 334 334 335 337 339 340 341 342 344 346 348 349 349 349 349 348 347 346 344 341 339 337 336 336 337 336 336 336 336 335 334
339 337 337 336 334 333 333 333 333 333 334 334 334 336 340 342 342 341 341 341 343 345 347 347 348 347 347 346 345 345 343 341 339 337 337 336 336 336 336 337 336 334
345 344 344 343 339 336 334 334 335 334 335 335 335 337 340 344 345 344 343 342 343 344 344 346 347 346 346 345 345 345 344 341 338 335 334 333 332 333 333 334 335 335
351 350 349 349 348 346 344 344 343 343 342 340 338 337 339 343 346 348 347 345 344 344 344 346 346 345 345 344 344 345 344 342 339 337 335 334 332 331 330 329 330 330
355 353 352 352 353 354 353 353 352 350 350 349 347 344 342 344 347 349 349 347 346 345 344 346 347 346 345 344 344 345 345 344 342 341 340 340 339 338 337 334 332 329
355 354 354 353 354 355 356 355 354 353 353 354 354 352 349 347 348 349 350 349 348 346 345 345 346 347 346 345 344 344 345 345 344 343 343 342 342 343 343 344 342 339
352 352 353 354 354 355 355 355 355 355 354 355 355 355 354 352 351 351 350 349 348 347 346 345 345 346 346 346 345 345 345 345 345 345 344 344 344 344 344 346 346 346
350 350 351 352 353 353 354 354 354 354 354 354 354 354 354 353 353 353 352 351 349 347 346 345 345 346 346 347 346 346 345 346 346 346 345 345 345 344 345 346 346 347
350 349 350 350 351 351 352 352 353 353 353 353 354 353 353 353 353 352 352 352 350 348 346 345 345 345 345 346 346 347 346 346 345 345 345 345 345 345 346 347 348 348
349 350 350 351 351 351 352 352 352 353 353 353 353 353 353 353 353 352 352 351 351 349 347 345 345 345 345 345 346 347 347 346 345 345 345 345 346 346 347 348 348 348
345 347 348 349 350 351 352 352 352 352 352 353 353 353 353 353 352 352 352 351 351 349 347 345 345 345 346 347 348 348 347 347 346 345 345 345 346 347 347 347 347 348
340 341 342 342 344 347 349 350 351 351 351 351 351 351 352 352 352 352 352 352 351 350 350 348 347 346 347 348 350 351 350 349 348 346 345 346 346 347 347 348 348 349
335 336 337 337 337 340 343 345 347 348 348 349 349 349 350 350 351 352 352 352 352 352 352 351 350 349 348 348 350 351 352 352 351 349 349 348 348 349 349 350 351 351
333 333 333 333 333 333 335 337 339 341 342 344 345 346 347 348 349 349 350 351 351 352 352 352 352 351 351 350 349 350 351 352 352 352 352 351 351 351 352 352 352 352
332 330 328 327 326 328 330 331 332 333 335 337 340 342 344 346 347 348 349 349 350 350 351 351 352 352 352 352 351 351 351 351 352 352 352 352 352 352 351 352 352 352
Wind_Speed
22 20 19 18 18 18 17 16 16 16 14 12 12 12 11 10 11 12 11 10 10 10 9 9 9 9 8 8 7 6 6 6 5 5 6 7 7 7 8 8 8 8
23 22 21 20 19 19 18 17 16 15 14 12 12 12 12 12 12 12 11 10 10 9 9 9 9 9 8 7 7 7 6 6 5 5 6 7 7 8 8 8 8 9
25 24 23 22 21 20 19 18 16 15 13 12 12 12 12 13 13 12 11 11 10 9 9 9 9 9 8 7 8 7 6 6 5 6 7 6 6 7 8 8 9 9
27 26 25 24 22 21 20 19 18 16 14 13 13 13 12 12 13 13 12 12 11 10 9 9 9 9 9 8 8 8 7 6 6 7 8 7 8 8 8 9 10 9
28 26 25 24 22 21 21 21 20 18 16 14 13 13 13 12 13 14 13 13 12 11 10 9 9 9 9 9 9 8 8 8 8 8 9 8 9 9 9 9 10 10
28 27 26 24 22 21 21 22 22 20 18 15 14 14 14 14 14 14 13 13 13 12 11 10 10 9 10 10 10 10 10 9 9 9 10 9 9 9 9 9 10 10
28 27 26 25 23 22 21 21 21 22 20 18 17 16 16 16 15 14 14 13 13 12 11 11 11 10 11 11 11 11 11 10 10 11 11 10 9 10 10 10 11 11
27 27 27 25 24 23 21 20 20 20 20 19 19 17 17 17 17 16 15 15 14 13 13 12 11 11 11 12 13 12 12 11 11 12 12 12 11 11 11 12 13 13
27 27 27 26 25 24 23 21 20 19 18 18 17 17 16 17 17 17 16 16 16 16 15 14 13 12 12 13 13 13 13 12 12 13 13 13 13 13 12 13 14 14
27 27 27 27 26 25 24 22 21 20 19 18 17 16 16 16 17 17 17 18 18 18 17 16 15 14 14 14 14 13 13 13 13 13 14 14 14 14 14 14 14 15
27 27 27 27 27 26 25 23 22 21 20 19 18 17 17 16 16 17 18 19 20 19 19 18 18 17 17 16 15 15 15 14 14 14 15 15 15 16 16 16 15 15
27 27 27 27 26 26 25 24 22 21 21 20 19 18 17 16 15 16 17 18 19 19 19 19 18 18 18 18 17 17 17 16 16 16 15 15 16 16 17 17 16 15
27 26 26 26 26 25 24 23 23 22 22 21 20 20 18 17 16 16 16 17 18 18 18 18 18 18 18 18 18 17 17 18 18 17 16 15 15 15 15 16 17 17
27 26 25 25 25 24 23 23 22 22 22 22 21 21 20 19 18 17 16 16 17 18 18 19 19 19 18 18 18 17 17 17 17 17 17 16 16 16 16 16 17 17
27 26 25 25 24 23 22 21 21 20 20 21 21 22 22 21 20 20 19 19 18 18 18 20 21 21 20 18 18 17 17 16 15 15 15 15 15 16 17 17 18 18
29 27 26 25 24 23 22 21 20 19 19 20 21 22 23 23 23 22 22 22 21 19 19 20 22 22 21 20 19 18 18 18 17 16 14 14 14 15 15 16 17 18
30 27 26 25 25 25 24 22 22 21 21 21 21 21 23 24 25 25 25 25 24 23 22 21 22 22 22 22 22 21 21 21 21 20 18 17 16 16 15 14 14 15
25 24 24 24 24 25 26 25 24 24 24 25 24 23 23 25 25 26 27 27 27 26 25 24 23 22 22 23 24 24 24 24 24 24 24 22 21 20 18 17 16 15
20 21 21 21 23 24 25 25 25 25 26 26 26 26 25 26 26 27 27 28 28 28 28 27 27 25 24 24 25 25 25 26 27 27 28 27 25 24 23 22 21 20
16 18 18 19 20 21 23 23 24 24 24 24 25 25 26 26 27 27 27 27 28 29 29 29 29 28 27 26 26 26 26 26 26 27 27 28 26 25 24 23 22 22
12 13 13 15 17 18 18 19 20 20 20 20 21 22 23 25 25 26 26 26 28 29 29 29 29 28 28 27 27 27 27 27 27 26 25 25 25 23 22 22 21 22
8 10 9 11 14 16 16 16 16 16 16 16 16 17 18 19 20 21 23 24 26 27 28 28 28 27 27 26 26 26 27 27 27 26 25 25 25 25 24 24 24 25
4 5 5 6 8 11 13 13 14 14 13 13 13 14 14 14 15 16 17 19 20 22 24 25 26 27 26 25 23 23 23 24 25 26 26 27 27 26 26 26 26 27
4 4 4 5 4 5 6 8 10 12 12 12 13 13 13 13 14 14 14 14 15 17 19 21 23 25 25 25 23 22 22 22 23 24 26 26 27 27 27 27 28 29
6 5 4 4 3 3 3 3 5 7 10 11 11 12 12 13 13 13 13 13 14 15 16 18 20 21 22 23 24 24 25 24 24 26 27 27 28 28 29 29 31 32
5 4 3 2 2 2 3 2 2 4 6 7 9 10 12 13 13 13 13 14 15 15 15 16 16 17 18 20 22 23 25 25 26 27 28 29 29 30 31 31 32 33
Wind_Direction
212 212 214 218 219 217 216 212 208 208 213 217 217 214 213 216 221 221 218 216 220 224 225 227 227 229 232 235 240 245 249 249 248 252 244 233 234 234 234 244 247 238
214 216 218 222 222 220 218 216 215 215 216 218 219 217 213 211 214 218 218 218 221 223 226 230 233 235 235 235 239 245 249 245 243 253 251 241 236 234 234 243 244 241
215 217 219 223 224 224 224 222 223 223 220 220 221 221 217 210 211 216 217 220 224 224 227 234 239 238 237 237 244 250 249 244 245 249 249 247 245 237 233 238 240 240
214 216 218 222 223 225 228 228 228 228 226 223 222 223 222 217 217 218 216 217 219 220 226 233 237 240 240 241 245 248 244 240 242 244 246 248 251 247 239 240 242 241
214 215 217 220 222 224 228 230 231 233 231 228 226 227 228 226 223 222 220 216 213 218 225 229 234 239 243 245 245 245 244 240 239 244 248 247 247 251 250 250 251 248
216 216 217 221 224 224 227 229 232 236 237 236 234 233 234 232 227 225 225 222 220 224 228 231 234 236 242 247 247 247 245 244 243 246 251 252 250 255 258 257 258 257
217 218 219 222 225 227 227 228 232 236 239 241 241 238 236 236 234 230 230 231 233 234 235 239 239 239 242 246 247 248 245 245 245 246 251 256 256 257 258 259 260 262
217 219 221 223 226 228 228 229 231 233 235 238 238 236 234 235 236 236 236 239 242 246 247 246 245 245 246 249 251 251 249 247 248 250 253 255 256 256 258 262 264 266
217 219 222 224 227 229 230 231 232 234 234 235 236 235 234 235 236 237 239 242 248 253 254 252 251 250 249 251 255 255 255 253 252 254 257 258 259 260 261 265 269 271
220 221 222 224 226 229 231 232 232 233 235 236 237 237 238 240 241 242 243 246 250 254 255 256 259 259 257 256 255 255 257 258 256 256 258 260 263 264 264 266 268 268
221 222 223 224 225 228 231 232 233 233 233 235 237 238 239 241 245 248 250 252 254 256 259 261 264 266 267 266 265 263 260 259 258 254 255 259 262 265 266 266 266 266
223 223 224 225 226 227 229 231 233 233 234 235 236 237 238 239 242 246 250 254 256 259 262 265 268 270 273 275 276 274 271 266 263 258 254 255 259 262 265 267 268 269
225 225 226 227 228 229 229 230 231 232 233 234 235 236 237 239 242 244 247 252 255 257 261 264 268 272 276 278 277 277 277 274 270 267 263 260 260 262 264 266 268 271
227 227 228 230 230 229 228 229 230 232 233 234 236 236 238 240 243 246 249 252 254 256 260 262 264 268 271 274 275 276 278 278 276 274 273 271 270 269 269 270 270 271
227 229 231 231 229 228 227 228 231 234 236 237 238 238 240 242 246 249 251 251 252 254 257 260 262 264 266 267 270 273 276 278 280 280 280 280 279 278 277 276 274 274
225 225 227 228 228 229 231 230 232 236 238 240 241 241 242 244 247 252 253 254 254 254 256 258 260 262 263 264 265 269 272 274 275 277 280 283 284 286 285 284 282 279
226 222 222 223 226 230 232 233 234 237 240 241 242 244 245 245 247 250 253 256 257 257 258 259 260 261 263 263 264 264 267 271 273 275 277 278 281 285 288 290 290 287
227 223 220 220 223 227 230 232 234 237 239 240 242 244 247 247 247 249 251 254 256 258 260 260 261 262 263 264 264 263 264 267 270 273 274 275 277 279 282 286 287 288
231 232 228 226 227 228 230 231 232 235 237 239 241 243 246 247 248 249 252 254 255 257 259 260 261 262 263 264 264 264 265 266 268 270 271 273 274 275 278 280 282 284
229 233 234 234 233 231 231 230 230 232 235 238 240 242 245 248 249 250 252 253 254 255 257 258 260 262 264 265 265 266 267 268 269 270 270 271 272 273 275 277 279 282
205 211 218 224 226 227 227 226 227 230 233 236 239 242 245 248 249 250 250 250 252 253 253 253 255 259 264 267 267 267 266 267 269 269 268 266 266 266 267 269 273 277
191 191 193 200 207 212 216 219 221 224 229 234 238 242 245 248 250 250 250 250 251 252 251 249 251 254 259 264 267 268 267 266 267 266 263 259 259 261 263 266 270 274
192 192 183 176 184 195 205 212 217 223 229 234 238 243 248 250 251 251 251 251 253 255 254 253 253 254 256 260 264 267 268 267 265 263 259 257 258 261 263 267 271 274
122 132 148 151 153 170 193 210 220 229 235 238 241 244 247 250 252 251 251 252 254 255 256 256 255 256 257 259 261 264 266 267 265 262 260 260 261 263 265 268 272 275
125 118 123 128 127 139 167 201 221 233 239 239 241 242 243 245 248 249 250 252 253 254 256 257 257 258 259 260 262 263 265 265 265 264 264 264 265 266 268 270 274 277
138 135 125 106 110 128 133 155 201 224 235 239 242 244 242 240 240 241 242 244 247 250 253 257 259 261 263 262 262 263 265 266 267 269 269 269 270 271 273 274 276 279